AEROCUBE 8C

Last updated on Sun Jun 21 2026 00:03:50 GMT+0000 (Coordinated Universal Time)

1 41853U 16067F 26170.60887759 .00005876 00000+0 24098-3 0 9998 2 41853 98.0546 38.1882 0006503 62.3132 297.8763 15.24674232526434
UTC large
Height (km)
Speed (km/s)
/
Latitude / Longitude
Inclination (degrees)
Orbital Period (minutes)
Azimuth
Elevation
Range (km)
Doppler Factor

Next 0 passes for location: London (51.5072 / 0.1276)

No passes found over London.
AEROCUBE 8C